OneWeb SL0124

operational
NORAD ID: 47276 Int'l Des: 2020-100 Owner: ONEWEB Country: UK Constellation: oneweb
LEOCIRCULARPOLARONEWEB_TYPE

About OneWeb SL0124

Description loading...

Live Position

Loading 3D Globe...

Upcoming Passes

Altitude History

Altitude vs Time

uPlot chart will show altitude changes over time

Two-Line Element Set

1 47276U 20100U 25258.12623095 -.00000307 00000-0 -88993-3 0 9991
2 47276 87.8903 45.2946 0001582 97.9814 262.1494 13.12443695228566
Epoch: Sep 15, 2025 • Age: 27 hours

Current Status

Altitude 1243.7 km
Velocity 7.23 km/s
Sub-Earth Point -87.23°S, 171.3°W
Launch Date Dec 18, 2020
Age 4.7 years
Type internet

Technical Details

Classification Payload
Mass 148.00 kg
Dry Mass 140.00 kg
Total Mass 148.00 kg
Length 1.30 m
Diameter 1.00 m
Span 5.00 m
Shape Trapezoid+2 pan
Manufacturer ONEWUS
Bus Type ARROW
Phase Status In Orbit
Owner/State ONEWEB/UK

Large Constellations

Loading constellations...